Flag for Cameroon Weather past 2 weeks in Douala, Cameroon

Now
79 °F

Thunderstorms. Passing clouds.


Feels Like: 83 °F
Forecast: 74 / 86 °F
Wind: 5 mph from South

Location: Douala Obs.

Current Time: May 26, 2015 at 1:49:27 AM

Latest Report: May 26, 2015 at 1:00 AM


Visibility: N/A

Pressure: 29.89 "Hg

Humidity: 94%

Dew point: 77 °F

Location of DoualaLocation

Historic Weather in Douala — Graph

°F

Douala temperature yesterday

Maximum temperature yesterday: 91 °F (at 1:00 PM)
Minimum temperature yesterday: 77 °F (at 6:00 AM)
Average temperature yesterday: 84 °F

Past Weeks' High & Low Weather Summary

 TemperatureHumidityPressure
High93 °F (May 11, 2:00 PM)100% (May 13, 3:00 AM)29.98 "Hg (May 13, 3:00 AM)
Low73 °F (May 13, 3:00 AM)53% (May 13, 2:00 PM)29.74 "Hg (May 13, 5:00 PM)
Average82 °F84%29.86 "Hg
* Reported Midnight between May 10 and May 11 — Midnight between May 25 and May 26, Douala, Weather by CustomWeather, © 2015

Note: Actual official high and low records may vary slightly from our data, if they occured in-between our weather recording intervals... More about our weather records

Advertising

Douala weather history for previous 24 hours

 ConditionsComfort  
Time TempWeatherWind HumidityBarometerVisibility
12:00 AM
Tue, May 26
81 °FThunderstorms. Passing clouds.5 mph89%29.89 "HgN/A
11:00 PM
Mon, May 25
81 °FThunderstorms. Passing clouds.No wind94%29.89 "HgN/A
10:00 PM82 °FThunderstorms. Passing clouds.5 mph89%29.89 "HgN/A
9:00 PM82 °FPassing clouds.2 mph89%29.86 "HgN/A
8:00 PM82 °FPassing clouds.7 mph84%29.83 "HgN/A
7:00 PM84 °FPassing clouds.12 mph74%29.83 "HgN/A
6:00 PM86 °FPassing clouds.9 mph70%29.80 "HgN/A
5:00 PM88 °FPassing clouds.9 mph70%29.80 "HgN/A
4:00 PM90 °FScattered clouds.12 mph67%29.80 "HgN/A
3:00 PM90 °FPartly sunny.7 mph63%29.83 "HgN/A
2:00 PM90 °FPartly sunny.7 mph67%29.86 "HgN/A
1:00 PM91 °FPartly sunny.5 mph63%29.89 "HgN/A
12:00 PM90 °FPartly sunny.1 mph63%29.89 "HgN/A
11:00 AM88 °FPartly sunny.5 mph70%29.92 "HgN/A
10:00 AM86 °FPartly sunny.2 mph79%29.92 "HgN/A
9:00 AM82 °FPartly sunny.5 mph89%29.92 "HgN/A
8:00 AM81 °FPartly sunny.No wind89%29.92 "Hg5 mi
7:00 AM79 °FThunderstorms. Partly sunny.No wind94%29.92 "Hg5 mi
6:00 AM77 °FThunderstorms. Passing clouds.No wind100%29.89 "HgN/A
5:00 AM79 °FThunderstorms. Passing clouds.No wind94%29.89 "HgN/A
4:00 AM79 °FThunderstorms. Passing clouds.5 mph94%29.89 "HgN/A
2:00 AM81 °FPassing clouds.No wind89%29.89 "HgN/A
1:00 AM81 °FPassing clouds.No wind89%29.89 "HgN/A
Weather by CustomWeather, © 2015

See weather overviewHow to use our weather pages